| time (UTC) | temp C | wind direction | speed KPH | gust KPH | rain 1hr cm | rain 24hr cm | rain mn cm | humidity % | barometer mb |
| 20260505121906 | 11 | 346 | 0.0 | 1.6 | 0.00 | 0.00 | 0.00 | 84 | 1030.0 |
| 20260505120908 | 11 | 66 | 1.6 | 1.6 | 0.00 | 0.00 | 0.00 | 85 | 1029.9 |
| 20260505120406 | 11 | 66 | 0.0 | 1.6 | 0.00 | 0.00 | 0.00 | 86 | 1029.9 |
| 20260505115905 | 11 | 66 | 0.0 | 1.6 | 0.00 | 0.03 | 0.00 | 86 | 1029.9 |
| 20260505114905 | 11 | 51 | 0.0 | 1.6 | 0.00 | 0.03 | 0.00 | 86 | 1030.1 |
| 20260505114405 | 11 | 48 | 0.0 | 0.0 | 0.00 | 0.03 | 0.00 | 86 | 1030.0 |
| 20260505112407 | 11 | 102 | 1.6 | 4.8 | 0.00 | 0.03 | 0.00 | 86 | 1030.1 |
| 20260505111906 | 11 | 46 | 0.0 | 1.6 | 0.00 | 0.03 | 0.00 | 86 | 1030.1 |
| 20260505111405 | 11 | 46 | 0.0 | 1.6 | 0.00 | 0.03 | 0.00 | 86 | 1030.2 |
| 20260505110405 | 11 | 46 | 0.0 | 1.6 | 0.00 | 0.03 | 0.00 | 86 | 1030.2 |
| 20260505101907 | 11 | 146 | 0.0 | 0.0 | 0.00 | 0.03 | 0.00 | 84 | 1030.5 |
| 20260505101405 | 11 | 147 | 0.0 | 0.0 | 0.00 | 0.03 | 0.00 | 84 | 1030.6 |
| 20260505100906 | 11 | 147 | 0.0 | 1.6 | 0.00 | 0.03 | 0.00 | 84 | 1030.6 |
| 20260505095905 | 11 | 147 | 0.0 | 1.6 | 0.00 | 0.03 | 0.00 | 84 | 1030.5 |
| 20260505095407 | 11 | 146 | 0.0 | 1.6 | 0.00 | 0.03 | 0.00 | 84 | 1030.5 |
| 20260505094906 | 11 | 147 | 0.0 | 1.6 | 0.00 | 0.03 | 0.00 | 85 | 1030.5 |
| 20260505094405 | 11 | 145 | 1.6 | 3.2 | 0.00 | 0.03 | 0.00 | 85 | 1030.5 |
| 20260505093905 | 11 | 152 | 1.6 | 8.0 | 0.00 | 0.03 | 0.00 | 86 | 1030.5 |
| 20260505093405 | 10 | 144 | 1.6 | 4.8 | 0.00 | 0.03 | 0.00 | 87 | 1030.6 |
| 20260505092905 | 10 | 112 | 3.2 | 8.0 | 0.00 | 0.03 | 0.00 | 87 | 1030.6 |
| 20260505092405 | 10 | 141 | 4.8 | 8.0 | 0.00 | 0.03 | 0.00 | 87 | 1030.6 |
| 20260505091905 | 10 | 139 | 0.0 | 4.8 | 0.00 | 0.03 | 0.00 | 87 | 1030.7 |
| 20260505091405 | 10 | 134 | 3.2 | 4.8 | 0.00 | 0.03 | 0.00 | 87 | 1030.6 |
| 20260505090905 | 10 | 154 | 0.0 | 1.6 | 0.00 | 0.03 | 0.00 | 86 | 1030.7 |
| 20260505090406 | 10 | 152 | 0.0 | 3.2 | 0.00 | 0.03 | 0.00 | 86 | 1030.7 |
| 20260505085407 | 10 | 18 | 4.8 | 14.5 | 0.00 | 0.03 | 0.00 | 85 | 1030.6 |
| 20260505084906 | 10 | 6 | 4.8 | 8.0 | 0.00 | 0.03 | 0.00 | 85 | 1030.4 |
| 20260505084406 | 11 | 10 | 0.0 | 1.6 | 0.00 | 0.03 | 0.00 | 84 | 1030.2 |
| 20260505083906 | 11 | 133 | 0.0 | 1.6 | 0.00 | 0.03 | 0.00 | 84 | 1030.3 |
| 20260505083406 | 11 | 133 | 0.0 | 1.6 | 0.00 | 0.03 | 0.00 | 84 | 1030.2 |
| 20260505082406 | 11 | 133 | 0.0 | 1.6 | 0.00 | 0.03 | 0.00 | 85 | 1030.5 |
| 20260505081907 | 11 | 131 | 0.0 | 1.6 | 0.00 | 0.03 | 0.00 | 84 | 1030.5 |
| 20260505081405 | 11 | 129 | 0.0 | 1.6 | 0.00 | 0.03 | 0.00 | 84 | 1030.5 |
| 20260505080906 | 11 | 129 | 0.0 | 3.2 | 0.00 | 0.03 | 0.00 | 84 | 1030.6 |
| 20260505075405 | 11 | 216 | 0.0 | 1.6 | 0.00 | 0.03 | 0.00 | 83 | 1030.7 |
| 20260505074905 | 11 | 216 | 0.0 | 1.6 | 0.00 | 0.03 | 0.00 | 83 | 1030.5 |
| 20260505074405 | 11 | 216 | 0.0 | 1.6 | 0.00 | 0.03 | 0.00 | 83 | 1030.5 |
| 20260505073905 | 11 | 216 | 0.0 | 3.2 | 0.00 | 0.03 | 0.00 | 83 | 1030.7 |
| 20260505073405 | 11 | 216 | 0.0 | 4.8 | 0.00 | 0.03 | 0.00 | 83 | 1030.8 |
| 20260505072905 | 11 | 216 | 0.0 | 3.2 | 0.00 | 0.03 | 0.00 | 83 | 1030.7 |
| 20260505071405 | 11 | 226 | 1.6 | 3.2 | 0.00 | 0.03 | 0.00 | 82 | 1030.7 |
| 20260505070905 | 12 | 206 | 1.6 | 4.8 | 0.00 | 0.03 | 0.00 | 82 | 1030.7 |
| 20260505070405 | 12 | 332 | 0.0 | 1.6 | 0.00 | 0.03 | 0.00 | 81 | 1030.7 |
| 20260505065905 | 12 | 355 | 0.0 | 1.6 | 0.00 | 0.03 | 0.00 | 81 | 1030.7 |
| 20260505065405 | 12 | 345 | 1.6 | 1.6 | 0.00 | 0.03 | 0.00 | 81 | 1030.7 |
| 20260505064906 | 12 | 351 | 0.0 | 3.2 | 0.00 | 0.03 | 0.00 | 81 | 1030.7 |
| 20260505063906 | 12 | 339 | 0.0 | 1.6 | 0.00 | 0.03 | 0.00 | 81 | 1030.6 |
| 20260505063406 | 12 | 344 | 0.0 | 3.2 | 0.00 | 0.03 | 0.00 | 81 | 1030.6 |
| 20260505061905 | 12 | 350 | 0.0 | 1.6 | 0.00 | 0.03 | 0.00 | 80 | 1030.6 |
| 20260505060905 | 12 | 349 | 0.0 | 4.8 | 0.00 | 0.03 | 0.00 | 79 | 1030.6 |
| 20260505055905 | 13 | 241 | 0.0 | 4.8 | 0.00 | 0.03 | 0.00 | 79 | 1030.5 |
| 20260505055405 | 13 | 359 | 1.6 | 4.8 | 0.00 | 0.03 | 0.00 | 78 | 1030.5 |
| 20260505054905 | 13 | 349 | 1.6 | 4.8 | 0.00 | 0.03 | 0.00 | 78 | 1030.5 |
| 20260505054405 | 13 | 349 | 3.2 | 8.0 | 0.00 | 0.03 | 0.00 | 77 | 1030.5 |
| 20260505053905 | 13 | 0 | 3.2 | 9.7 | 0.00 | 0.03 | 0.00 | 77 | 1030.4 |
| 20260505053405 | 13 | 345 | 3.2 | 9.7 | 0.00 | 0.03 | 0.00 | 77 | 1030.4 |
| 20260505052906 | 13 | 341 | 4.8 | 11.3 | 0.00 | 0.03 | 0.00 | 76 | 1030.4 |
| 20260505051906 | 14 | 353 | 4.8 | 14.5 | 0.00 | 0.03 | 0.00 | 75 | 1030.4 |
| 20260505051405 | 15 | 3 | 4.8 | 12.9 | 0.00 | 0.03 | 0.00 | 75 | 1030.4 |
| 20260505050405 | 15 | 340 | 6.4 | 12.9 | 0.00 | 0.03 | 0.00 | 75 | 1030.4 |
| 20260505041406 | 16 | 349 | 8.0 | 19.3 | 0.00 | 0.03 | 0.00 | 72 | 1030.5 |
| 20260505040905 | 16 | 347 | 6.4 | 14.5 | 0.00 | 0.03 | 0.00 | 72 | 1030.4 |
| 20260505040406 | 16 | 348 | 6.4 | 14.5 | 0.00 | 0.03 | 0.00 | 72 | 1030.4 |
| 20260505035906 | 16 | 333 | 6.4 | 16.1 | 0.00 | 0.03 | 0.00 | 72 | 1030.5 |
| 20260505035405 | 16 | 338 | 4.8 | 16.1 | 0.00 | 0.03 | 0.00 | 71 | 1030.4 |
| 20260505034905 | 16 | 306 | 6.4 | 14.5 | 0.00 | 0.03 | 0.00 | 71 | 1030.5 |
| 20260505034405 | 16 | 342 | 3.2 | 9.7 | 0.00 | 0.03 | 0.00 | 71 | 1030.5 |
| 20260505033905 | 16 | 336 | 3.2 | 12.9 | 0.00 | 0.03 | 0.00 | 72 | 1030.5 |
| 20260505033406 | 16 | 237 | 3.2 | 11.3 | 0.00 | 0.03 | 0.00 | 72 | 1030.4 |
| 20260505032905 | 16 | 298 | 6.4 | 16.1 | 0.00 | 0.03 | 0.00 | 71 | 1030.5 |
| 20260505032406 | 16 | 348 | 8.0 | 14.5 | 0.00 | 0.03 | 0.00 | 71 | 1030.5 |
| 20260505031907 | 16 | 320 | 8.0 | 19.3 | 0.00 | 0.03 | 0.00 | 72 | 1030.6 |
| 20260505031405 | 16 | 348 | 8.0 | 16.1 | 0.00 | 0.03 | 0.00 | 71 | 1030.6 |
| 20260505030906 | 16 | 328 | 8.0 | 14.5 | 0.00 | 0.03 | 0.00 | 71 | 1030.6 |
| 20260505030407 | 16 | 326 | 4.8 | 12.9 | 0.00 | 0.03 | 0.00 | 71 | 1030.6 |
| 20260505025905 | 16 | 264 | 3.2 | 12.9 | 0.00 | 0.03 | 0.00 | 70 | 1030.7 |
| 20260505025405 | 16 | 349 | 4.8 | 12.9 | 0.00 | 0.03 | 0.00 | 71 | 1030.8 |
| 20260505024906 | 16 | 313 | 3.2 | 9.7 | 0.00 | 0.03 | 0.00 | 72 | 1030.8 |
| 20260505023406 | 16 | 348 | 8.0 | 19.3 | 0.00 | 0.03 | 0.00 | 71 | 1030.9 |
| 20260505022905 | 16 | 343 | 8.0 | 16.1 | 0.00 | 0.03 | 0.00 | 71 | 1031.0 |
| 20260505022406 | 16 | 334 | 9.7 | 16.1 | 0.00 | 0.03 | 0.00 | 72 | 1031.0 |
| 20260505021905 | 16 | 343 | 8.0 | 19.3 | 0.00 | 0.03 | 0.00 | 73 | 1031.0 |
| 20260505021406 | 16 | 343 | 4.8 | 14.5 | 0.00 | 0.03 | 0.00 | 72 | 1031.0 |
| 20260505020906 | 16 | 342 | 11.3 | 20.9 | 0.00 | 0.03 | 0.00 | 71 | 1031.1 |
| 20260505020406 | 16 | 355 | 8.0 | 16.1 | 0.00 | 0.03 | 0.00 | 71 | 1031.1 |
| 20260505015906 | 16 | 353 | 9.7 | 14.5 | 0.00 | 0.03 | 0.00 | 71 | 1031.1 |
| 20260505013906 | 15 | 331 | 6.4 | 14.5 | 0.00 | 0.03 | 0.00 | 76 | 1031.3 |
| 20260505013405 | 15 | 347 | 6.4 | 16.1 | 0.00 | 0.03 | 0.00 | 74 | 1031.4 |
| 20260505012906 | 16 | 350 | 4.8 | 14.5 | 0.00 | 0.03 | 0.00 | 74 | 1031.5 |
| 20260505011905 | 16 | 342 | 4.8 | 16.1 | 0.00 | 0.03 | 0.00 | 72 | 1031.6 |
| 20260505011407 | 16 | 354 | 4.8 | 16.1 | 0.00 | 0.03 | 0.00 | 72 | 1031.7 |
| 20260505010406 | 15 | 354 | 6.4 | 19.3 | 0.00 | 0.03 | 0.00 | 74 | 1031.8 |
| 20260505005906 | 15 | 338 | 6.4 | 16.1 | 0.00 | 0.03 | 0.00 | 74 | 1031.8 |
| 20260505005406 | 15 | 355 | 4.8 | 12.9 | 0.00 | 0.03 | 0.00 | 74 | 1031.9 |
| 20260505004406 | 15 | 349 | 3.2 | 19.3 | 0.00 | 0.03 | 0.00 | 75 | 1032.0 |
| 20260505003907 | 15 | 338 | 4.8 | 14.5 | 0.00 | 0.03 | 0.00 | 75 | 1032.1 |
| 20260505003405 | 15 | 346 | 3.2 | 14.5 | 0.00 | 0.03 | 0.00 | 75 | 1032.2 |
| 20260505002407 | 15 | 356 | 4.8 | 14.5 | 0.00 | 0.03 | 0.00 | 74 | 1032.4 |
| 20260505001906 | 15 | 353 | 4.8 | 9.7 | 0.00 | 0.03 | 0.00 | 75 | 1032.5 |
| 20260505001405 | 15 | 348 | 6.4 | 16.1 | 0.00 | 0.03 | 0.00 | 74 | 1032.5 |
| 20260505000906 | 15 | 344 | 3.2 | 12.9 | 0.00 | 0.03 | 0.00 | 75 | 1032.5 |
| 20260505000406 | 15 | 354 | 4.8 | 14.5 | 0.00 | 0.03 | 0.00 | 75 | 1032.6 |
| 20260504235906 | 15 | 349 | 3.2 | 4.8 | 0.00 | 0.03 | 0.00 | 77 | 1032.6 |
| 20260504235406 | 15 | 323 | 3.2 | 4.8 | 0.00 | 0.03 | 0.00 | 76 | 1032.6 |
| 20260504234907 | 15 | 352 | 1.6 | 4.8 | 0.00 | 0.05 | 0.00 | 76 | 1032.7 |
| 20260504233407 | 15 | 342 | 1.6 | 3.2 | 0.00 | 0.05 | 0.00 | 76 | 1032.8 |
| 20260504232905 | 15 | 343 | 1.6 | 3.2 | 0.00 | 0.05 | 0.00 | 77 | 1032.8 |
| 20260504232405 | 15 | 357 | 1.6 | 3.2 | 0.00 | 0.05 | 0.00 | 76 | 1032.9 |
| 20260504231907 | 15 | 339 | 1.6 | 4.8 | 0.00 | 0.05 | 0.00 | 78 | 1032.9 |
| 20260504231405 | 14 | 359 | 0.0 | 3.2 | 0.00 | 0.05 | 0.00 | 79 | 1032.9 |
| 20260504230407 | 14 | 354 | 1.6 | 4.8 | 0.00 | 0.05 | 0.00 | 79 | 1032.9 |
| 20260504225905 | 14 | 346 | 1.6 | 3.2 | 0.00 | 0.05 | 0.00 | 79 | 1032.9 |
| 20260504225407 | 14 | 336 | 0.0 | 1.6 | 0.00 | 0.05 | 0.00 | 80 | 1032.9 |
| 20260504224905 | 13 | 340 | 0.0 | 1.6 | 0.00 | 0.05 | 0.00 | 81 | 1032.9 |
| 20260504224404 | 13 | 346 | 0.0 | 1.6 | 0.00 | 0.05 | 0.00 | 81 | 1032.9 |
| 20260504223905 | 13 | 338 | 1.6 | 3.2 | 0.00 | 0.05 | 0.00 | 81 | 1032.9 |
| 20260504223405 | 13 | 242 | 1.6 | 3.2 | 0.00 | 0.05 | 0.00 | 81 | 1033.0 |
| 20260504222405 | 13 | 343 | 0.0 | 3.2 | 0.00 | 0.05 | 0.00 | 81 | 1033.0 |
| 20260504221905 | 13 | 341 | 0.0 | 1.6 | 0.00 | 0.05 | 0.00 | 82 | 1033.0 |
| 20260504221405 | 13 | 211 | 0.0 | 1.6 | 0.00 | 0.05 | 0.00 | 82 | 1033.0 |
| 20260504220907 | 13 | 16 | 0.0 | 1.6 | 0.00 | 0.05 | 0.00 | 82 | 1033.0 |
| 20260504220405 | 13 | 16 | 1.6 | 3.2 | 0.00 | 0.05 | 0.00 | 82 | 1033.0 |
| 20260504215405 | 13 | 16 | 0.0 | 1.6 | 0.00 | 0.05 | 0.00 | 83 | 1033.1 |
| 20260504214907 | 12 | 16 | 0.0 | 1.6 | 0.00 | 0.05 | 0.00 | 83 | 1033.1 |
| 20260504214405 | 12 | 16 | 0.0 | 1.6 | 0.00 | 0.05 | 0.00 | 83 | 1033.2 |
| 20260504213906 | 12 | 16 | 0.0 | 0.0 | 0.00 | 0.05 | 0.00 | 84 | 1033.2 |
| 20260504213407 | 12 | 16 | 0.0 | 0.0 | 0.00 | 0.05 | 0.00 | 84 | 1033.2 |
| 20260504212905 | 12 | 16 | 0.0 | 0.0 | 0.00 | 0.05 | 0.00 | 84 | 1033.2 |
| 20260504212407 | 12 | 16 | 0.0 | 0.0 | 0.00 | 0.05 | 0.00 | 84 | 1033.2 |
| 20260504211905 | 12 | 16 | 0.0 | 0.0 | 0.00 | 0.05 | 0.00 | 83 | 1033.2 |
| 20260504211405 | 12 | 16 | 0.0 | 1.6 | 0.00 | 0.05 | 0.00 | 84 | 1033.2 |
| 20260504210905 | 12 | 16 | 0.0 | 1.6 | 0.00 | 0.05 | 0.00 | 84 | 1033.3 |
| 20260504210405 | 12 | 16 | 0.0 | 1.6 | 0.00 | 0.05 | 0.00 | 83 | 1033.2 |
| 20260504205906 | 12 | 16 | 0.0 | 1.6 | 0.00 | 0.05 | 0.00 | 83 | 1033.2 |
| 20260504205405 | 12 | 16 | 0.0 | 1.6 | 0.00 | 0.05 | 0.00 | 83 | 1033.1 |
| 20260504204407 | 12 | 16 | 0.0 | 1.6 | 0.00 | 0.05 | 0.00 | 83 | 1033.2 |
| 20260504203905 | 12 | 16 | 0.0 | 1.6 | 0.00 | 0.05 | 0.00 | 83 | 1033.2 |
| 20260504202906 | 11 | 16 | 0.0 | 1.6 | 0.00 | 0.05 | 0.00 | 83 | 1033.3 |
| 20260504202406 | 11 | 16 | 0.0 | 0.0 | 0.00 | 0.05 | 0.00 | 83 | 1033.3 |
| 20260504201906 | 11 | 16 | 0.0 | 0.0 | 0.00 | 0.05 | 0.00 | 83 | 1033.2 |
| 20260504200907 | 11 | 16 | 0.0 | 1.6 | 0.00 | 0.05 | 0.00 | 83 | 1033.1 |
| 20260504200406 | 11 | 16 | 0.0 | 1.6 | 0.00 | 0.05 | 0.00 | 83 | 1033.1 |
| 20260504195905 | 11 | 16 | 0.0 | 0.0 | 0.00 | 0.05 | 0.00 | 83 | 1033.0 |
| 20260504195405 | 11 | 16 | 0.0 | 0.0 | 0.00 | 0.05 | 0.00 | 83 | 1033.0 |
| 20260504194906 | 11 | 16 | 0.0 | 1.6 | 0.00 | 0.05 | 0.00 | 83 | 1032.9 |
| 20260504193906 | 11 | 16 | 0.0 | 1.6 | 0.00 | 0.05 | 0.00 | 84 | 1032.8 |
| 20260504192905 | 11 | 16 | 0.0 | 1.6 | 0.00 | 0.05 | 0.00 | 84 | 1032.7 |
| 20260504191906 | 11 | 16 | 0.0 | 3.2 | 0.00 | 0.05 | 0.00 | 85 | 1032.7 |
| 20260504191405 | 11 | 10 | 1.6 | 3.2 | 0.00 | 0.05 | 0.00 | 85 | 1032.7 |
| 20260504190906 | 11 | 343 | 0.0 | 1.6 | 0.00 | 0.05 | 0.00 | 85 | 1032.7 |
| 20260504190405 | 11 | 338 | 1.6 | 3.2 | 0.00 | 0.05 | 0.00 | 86 | 1032.7 |
| 20260504185905 | 11 | 336 | 0.0 | 1.6 | 0.00 | 0.05 | 0.00 | 86 | 1032.7 |
| 20260504185405 | 11 | 335 | 0.0 | 1.6 | 0.00 | 0.05 | 0.00 | 87 | 1032.6 |
| 20260504184905 | 11 | 330 | 0.0 | 1.6 | 0.00 | 0.05 | 0.00 | 87 | 1032.6 |
| 20260504184405 | 11 | 338 | 0.0 | 1.6 | 0.00 | 0.05 | 0.00 | 87 | 1032.6 |
| 20260504183906 | 11 | 337 | 0.0 | 1.6 | 0.00 | 0.05 | 0.00 | 87 | 1032.6 |
| 20260504182906 | 11 | 346 | 0.0 | 1.6 | 0.00 | 0.05 | 0.00 | 88 | 1032.7 |
| 20260504182405 | 11 | 352 | 0.0 | 1.6 | 0.00 | 0.05 | 0.00 | 88 | 1032.7 |
| 20260504181904 | 11 | 355 | 0.0 | 3.2 | 0.00 | 0.05 | 0.00 | 89 | 1032.7 |
| 20260504181405 | 11 | 343 | 0.0 | 3.2 | 0.00 | 0.05 | 0.00 | 89 | 1032.7 |
| 20260504180905 | 10 | 342 | 0.0 | 1.6 | 0.00 | 0.05 | 0.00 | 90 | 1032.7 |
| 20260504180405 | 10 | 349 | 0.0 | 4.8 | 0.00 | 0.05 | 0.00 | 90 | 1032.7 |
| 20260504175905 | 10 | 355 | 1.6 | 4.8 | 0.00 | 0.05 | 0.00 | 90 | 1032.7 |
| 20260504175405 | 10 | 352 | 0.0 | 3.2 | 0.00 | 0.05 | 0.00 | 90 | 1032.7 |
| 20260504174905 | 10 | 334 | 1.6 | 4.8 | 0.00 | 0.05 | 0.00 | 90 | 1032.8 |
| 20260504173905 | 10 | 359 | 0.0 | 3.2 | 0.00 | 0.05 | 0.00 | 91 | 1032.8 |
| 20260504173404 | 10 | 263 | 0.0 | 4.8 | 0.00 | 0.05 | 0.00 | 91 | 1032.7 |
| 20260504172905 | 10 | 300 | 0.0 | 3.2 | 0.00 | 0.05 | 0.00 | 91 | 1032.8 |
| 20260504171904 | 10 | 27 | 0.0 | 1.6 | 0.00 | 0.05 | 0.00 | 91 | 1032.8 |
| 20260504171405 | 10 | 28 | 1.6 | 3.2 | 0.00 | 0.05 | 0.00 | 91 | 1032.8 |
| 20260504170904 | 10 | 358 | 0.0 | 1.6 | 0.00 | 0.05 | 0.00 | 91 | 1032.8 |
| 20260504170405 | 10 | 13 | 0.0 | 0.0 | 0.00 | 0.05 | 0.00 | 91 | 1032.8 |
| 20260504160405 | 10 | 356 | 1.6 | 3.2 | 0.00 | 0.05 | 0.00 | 90 | 1032.8 |
| 20260504150905 | 10 | 12 | 1.6 | 3.2 | 0.00 | 0.05 | 0.00 | 90 | 1033.4 |
| 20260504150404 | 10 | 31 | 1.6 | 3.2 | 0.00 | 0.05 | 0.00 | 90 | 1033.4 |
| 20260504140905 | 9 | 359 | 0.0 | 1.6 | 0.00 | 0.05 | 0.00 | 89 | 1033.5 |
| 20260504140405 | 9 | 359 | 0.0 | 1.6 | 0.00 | 0.05 | 0.00 | 89 | 1033.4 |
| 20260504130404 | 10 | 225 | 0.0 | 1.6 | 0.00 | 0.05 | 0.00 | 88 | 1033.4 |